This demonstration page uses our WeatherBlox Daily Observations layout. Learn more.

Left ArrowRight Arrow

38.20091, -84.87328

Hourly Observations for August 17, 2018

Temp ( °F °C ) Dew Point ( °F °C ) Humidity (%) Winds ( mph kmh ) Pressure ( in mb ) Visibility ( mi km ) Precip ( " mm )
12:53 am 00:53 Mostly Cloudy 76 24.4 72 22.2 88 88 S 7 11 30.01 1016 10 16 0.00 0.00
1:53 am 01:53 Mostly Cloudy 76 24.4 72 22.2 88 88 S 6 9 30.00 1016 10 16 0.00 0.03
2:43 am 02:43 Cloudy 75 23.9 71 21.7 88 88 SSW 10 17 29.97 1015 10 16 0.00 0.00
2:53 am 02:53 Cloudy 75 23.9 71 21.7 88 88 S 9 15 29.99 1016 10 16 0.00 0.00
3:53 am 03:53 Cloudy 76 24.4 72 22.2 88 88 SSW 8 13 30.01 1016 10 16 0.00 0.00
4:43 am 04:43 Cloudy with Nearby Thunderstorms 75 23.9 72 22.2 90 90 SSW 5 7 30.00 1016 10 16 0.08 2.03
4:53 am 04:53 Mostly Cloudy with Nearby Thunderstorms 75 23.9 72 22.2 90 90 S 7 11 30.01 1016 10 16 0.08 2.03
5:09 am 05:09 Mostly Clear 74 23.3 72 22.2 94 94 S 8 13 30.00 1016 10 16 0.00 0.00
5:48 am 05:48 Mostly Cloudy 73 23 72 22 94 94 S 8 13 30.00 1016 10 16 0.00 0.00
5:53 am 05:53 Mostly Cloudy 74 23.3 72 22.2 94 94 S 8 13 29.99 1016 10 16 0.00 0.00
6:12 am 06:12 Mostly Cloudy 74 23.3 72 22.2 94 94 S 6 9 30.00 1016 10 16 0.00 0.00
6:21 am 06:21 Mostly Clear 74 23.3 72 22.2 94 94 S 6 9 30.00 1016 10 16 0.00 0.00
6:36 am 06:36 Mostly Cloudy 74 23.3 72 22.2 94 94 S 6 9 30.00 1016 10 16 0.00 0.00
6:53 am 06:53 Cloudy 74 23.3 71 21.7 91 91 S 8 13 30.00 1016 10 16 0.00 0.00
7:02 am 07:02 Cloudy 74 23.3 71 21.7 91 91 S 7 11 30.00 1016 10 16 0.00 0.00
7:37 am 07:37 Cloudy 74 23.3 71 21.7 91 91 S 10 17 30.00 1016 10 16 0.00 0.00
7:53 am 07:53 Cloudy 74 23.3 71 21.7 91 91 S 8 13 30.01 1016 10 16 0.00 0.00
8:14 am 08:14 Cloudy 74 23.3 71 21.7 91 91 SSW 8 13 30.00 1016 10 16 0.00 0.00
8:48 am 08:48 Mostly Cloudy 73 23 72 22 94 94 SSW 10 17 30.03 1017 10 16 0.00 0.00
8:53 am 08:53 Mostly Cloudy 74 23.3 71 21.7 91 91 SSW 9 15 30.03 1017 10 16 0.00 0.00
9:08 am 09:08 Cloudy 74 23.3 71 21.7 91 91 SSW 10 17 30.03 1017 10 16 0.00 0.00
9:18 am 09:18 Cloudy with Heavy Rain 73 22.8 71 21.7 94 94 S 10 17 30.03 1017 3 4 0.06 1.52
9:32 am 09:32 Cloudy with Heavy Rain 73 22.8 71 21.7 94 94 SSW 18 30 30.03 1017 1 2 0.22 5.59
9:39 am 09:39 Cloudy with Heavy Rain 73 22.8 71 21.7 94 94 SSW 13 20 30.03 1017 1 1 0.37 9.40
9:44 am 09:44 Cloudy with Light Rain 73 22.8 71 21.7 94 94 SSW 10 17 30.03 1017 2 2 0.38 9.65
9:46 am 09:46 Cloudy with Light Rain 73 22.8 71 21.7 94 94 SSW 10 17 30.03 1017 3 5 0.38 9.65
9:53 am 09:53 Cloudy 73 22.8 71 21.7 94 94 SW 10 17 30.03 1017 10 16 0.38 9.65
10:46 am 10:46 Partly Cloudy 75 23.9 72 22.2 90 90 S 10 17 30.00 1016 10 16 0.00 0.00
10:53 am 10:53 Mostly Sunny 76 24.4 72 22.2 88 88 S 10 17 30.00 1016 10 16 0.00 0.00
11:13 am 11:13 Partly Cloudy 77 25 73 22.8 88 88 S 12 19 30.00 1016 10 16 0.00 0.00
11:33 am 11:33 Mostly Cloudy 78 25.6 72 22.2 82 82 SSW 15 24 30.00 1016 10 16 0.00 0.00
11:53 am 11:53 Mostly Cloudy 78 25.6 72 22.2 82 82 S 13 20 29.99 1016 10 16 0.00 0.00
12:39 pm 12:39 Mostly Cloudy 79 26.1 73 22.8 82 82 SSW 9 15 30.00 1016 10 16 0.00 0.00
12:53 pm 12:53 Mostly Cloudy 79 26.1 73 22.8 82 82 SSW 13 20 30.00 1016 10 16 0.00 0.00
1:53 pm 13:53 Cloudy 80 26.7 73 22.8 79 79 SW 14 22 30.00 1016 10 16 0.00 0.00
2:07 pm 14:07 Mostly Cloudy 80 26.7 73 22.8 79 79 SW 13 20 30.00 1016 10 16 0.00 0.00
2:53 pm 14:53 Mostly Cloudy 82 27.8 73 22.8 74 74 SSW 10 17 29.99 1016 10 16 0.00 0.00
3:53 pm 15:53 Mostly Cloudy 83 28.3 73 22.8 72 72 SSW 8 13 29.97 1015 10 16 0.00 0.00
4:14 pm 16:14 Mostly Cloudy with Nearby Thunderstorms 83 28.3 73 22.8 72 72 S 10 17 29.97 1015 10 16 0.00 0.00
4:35 pm 16:35 Mostly Cloudy 82 27.8 72 22.2 72 72 S 12 19 29.97 1015 10 16 0.00 0.00
4:45 pm 16:45 Mostly Cloudy with Light Rain 81 27.2 73 22.8 77 77 WSW 7 11 29.97 1015 7 11 0.00 0.03
4:49 pm 16:49 Cloudy with Thunderstorms 79 26 72 22 79 79 WNW 14 22 29.97 1015 5 8 0.00 0.03
4:53 pm 16:53 Cloudy with Thunderstorms 74 23.3 70 21.1 88 88 NW 14 22 29.98 1015 5 8 0.01 0.25
5:01 pm 17:01 Cloudy with Strong Thunderstorms 73 22.8 70 21.1 90 90 NNW 16 26 29.97 1015 2 2 0.13 3.30
5:04 pm 17:04 Cloudy with Nearby Thunderstorms 73 22.8 69 20.6 87 87 NW 14 22 29.97 1015 1 1 0.32 8.13
5:11 pm 17:11 Cloudy with Nearby Thunderstorms 73 22.8 70 21.1 90 90 Calm 29.97 1015 0 0 0.56 14.22
5:19 pm 17:19 Cloudy with Light Rain 73 22.8 70 21.1 90 90 VRB 3 6 29.97 1015 2 3 0.57 14.48
5:26 pm 17:26 Cloudy with Light Rain 73 22.8 70 21.1 90 90 NW 5 7 29.97 1015 10 16 0.57 14.48
5:36 pm 17:36 Cloudy with Heavy Rain 73 22.8 70 21.1 90 90 SSE 5 7 29.97 1015 2 3 0.66 16.76
5:42 pm 17:42 Cloudy with Heavy Rain 73 22.8 70 21.1 90 90 VRB 3 6 29.97 1015 1 1 0.75 19.05
5:48 pm 17:48 Cloudy with Rain 72 22 70 21 94 94 N 5 7 29.97 1015 1 2 0.77 19.56
5:53 pm 17:53 Cloudy with Heavy Rain 73 22.8 71 21.7 94 94 NE 8 13 29.96 1015 3 4 0.81 20.57
6:00 pm 18:00 Mostly Cloudy with Light Rain 74 23.3 71 21.7 91 91 N 7 11 29.97 1015 5 8 0.00 0.03
6:53 pm 18:53 Mostly Sunny 77 25 72 22.2 85 85 Calm 29.97 1015 10 16 0.00 0.03
7:53 pm 19:53 Mostly Cloudy 77 25 73 22.8 88 88 Calm 29.97 1015 10 16 0.00 0.00
8:53 pm 20:53 Clear 75 23.9 72 22.2 90 90 Calm 29.97 1015 10 16 0.00 0.00
9:53 pm 21:53 Clear 73 22.8 71 21.7 94 94 Calm 29.98 1015 10 16 0.00 0.00
10:53 pm 22:53 Partly Cloudy 73 22.8 71 21.7 94 94 Calm 29.98 1015 10 16 0.00 0.00
11:53 pm 23:53 Mostly Clear 74 23.3 71 21.7 91 91 Calm 29.98 1015 10 16 0.00 0.00

Powered by AerisWeather